Starlink 6051

operational
NORAD ID: 56463 Int'l Des: 2023-064 Owner: SPXS Country: US Constellation: starlink
LEOCIRCULAR

Starlink 6051について

説明を読み込み中...

リアルタイム位置

3D地球を読み込み中...

次回通過

高度履歴

Altitude vs Time

uPlot chart will show altitude changes over time

軌道要素

1 56463U 23064R 25257.37620354 .00006281 00000-0 53410-3 0 9993
2 56463 69.9991 229.0892 0003437 269.5307 90.5458 14.98299918128833
Epoch: Sep 14, 2025 • Age: 24 hours

現在のステータス

高度 578.4 km
速度 7.57 km/s
衛星直下点 38.01°N, 109.73°E
打ち上げ日 May 10, 2023
運用期間 2.3 years
タイプ internet

技術仕様

分類 Payload
質量 305.00 kg
乾燥質量 290.00 kg
総質量 305.00 kg
長さ 0.20 m
直径 2.80 m
スパン 9.00 m
形状 Box + pan
製造者 SPXS
バスタイプ Starlink
フェーズステータス In Orbit
所有者/国 SPXS/US

大規模コンステレーション

Loading constellations...